Flag for Madagascar Weather past 2 weeks in Toamasina, Madagascar

Now
79 °F

Passing clouds.


Feels Like: 82 °F
Forecast: 70 / 85 °F
Wind: No wind

Location: Tamatave

Current Time: Jan 29, 2015 at 10:17:53 PM

Latest Report: Jan 29, 2015 at 9:00 PM


Visibility: N/A

Pressure: 29.86 "Hg

Humidity: 89%

Dew point: 75 °F

Location of ToamasinaLocation

Historic Weather in Toamasina — Graph

°F

Toamasina temperature yesterday

Maximum temperature yesterday: 88 °F (at 3:00 PM)
Minimum temperature yesterday: 73 °F (at 5:00 AM)
Average temperature yesterday: 80 °F

Past Weeks' High & Low Weather Summary

 TemperatureHumidityPressure
High100 °F (Jan 17, 2:00 PM)100% (Jan 14, 10:00 PM)29.95 "Hg (Jan 14, 10:00 PM)
Low73 °F (Jan 24, 3:00 AM)42% (Jan 17, 2:00 PM)29.24 "Hg (Jan 17, 4:00 AM)
Average81 °F84%29.80 "Hg
* Reported Jan 14 9:00 PM — Jan 29 9:00 PM, Toamasina, Weather by CustomWeather, © 2014

Note: Actual official high and low records may vary slightly from our data, if they occured in-between our weather recording intervals... More about our weather records

Advertising

Toamasina weather history for previous 24 hours

 ConditionsComfort  
Time TempWeatherWind HumidityBarometerVisibility
9:00 PM
Jan 29
79 °FPassing clouds.No wind89%29.86 "HgN/A
8:00 PM79 °FPassing clouds.No wind89%29.83 "HgN/A
7:00 PM81 °FWarm.N/A84%29.77 "HgN/A
6:00 PM82 °FScattered clouds.7 mph74%29.80 "HgN/A
5:00 PM84 °FPassing clouds.7 mph70%29.77 "HgN/A
4:00 PM86 °FPassing clouds.9 mph70%29.77 "HgN/A
3:00 PM86 °FPassing clouds.12 mph70%29.80 "HgN/A
2:00 PM86 °FPassing clouds.12 mph66%29.80 "HgN/A
1:00 PM88 °FPassing clouds.12 mph62%29.80 "HgN/A
12:00 PM86 °FScattered clouds.7 mph66%29.83 "HgN/A
11:00 AM86 °FScattered clouds.7 mph66%29.86 "HgN/A
10:00 AM86 °FScattered clouds.5 mph62%29.86 "HgN/A
9:00 AM84 °FPassing clouds.7 mph62%29.86 "HgN/A
8:00 AM82 °FPassing clouds.7 mph70%29.86 "HgN/A
7:00 AM77 °FPassing clouds.5 mph83%29.86 "HgN/A
6:00 AM73 °FPassing clouds.No wind94%29.86 "HgN/A
5:00 AM75 °FPassing clouds.No wind94%29.83 "HgN/A
4:00 AM75 °FPassing clouds.No wind94%29.83 "HgN/A
3:00 AM75 °FPassing clouds.No wind94%29.83 "HgN/A
2:00 AM75 °FPassing clouds.No wind94%29.83 "HgN/A
1:00 AM75 °FPassing clouds.No wind94%29.89 "HgN/A
12:00 AM75 °FPassing clouds.No wind94%29.89 "HgN/A
11:00 PM
Jan 28
77 °FPassing clouds.No wind94%29.89 "HgN/A
10:00 PM79 °FPassing clouds.No wind89%29.89 "HgN/A
Weather by CustomWeather, © 2014

See weather overviewHow to use our weather pages